Regional Weather Roundup
Issued by NWS

Home | Current Version | Previous Version | Graphics & Text | Print | Product List | Glossary On
Versions: 1 2 3 4 5 6 7 8 9 10 11 12 13 14 15 16 17 18 19 20 21 22 23 24 25 26 27 28 29 30 31 32 33 34 35 36 37 38 39 40 41 42 43 44 45 46 47 48 49 50
000
ASUS43 KMPX 300010
RWRMN
WEATHER ROUNDUP FOR MINNESOTA
NATIONAL WEATHER SERVICE TWIN CITIES/CHANHASSEN MN
700 PM CDT MON MAY 29 2017


NOTE: "FAIR" INDICATES FEW OR NO CLOUDS BELOW 12,000 FEET WITH NO
SIGNIFICANT WEATHER AND/OR OBSTRUCTIONS TO VISIBILITY. N/A MEANS
CURRENT SKY AND/OR WEATHER CONDITIONS ARE NOT AVAILABLE.

MNZ060>063-068>070-300100-
   Twin Cities Metro

CITY           SKY/WX    TMP DP  RH WIND       PRES   REMARKS
TWIN CITIES    PTSUNNY   63  44  50 NW17G25   29.85R
6HR MIN TEMP:  58; 6HR MAX TEMP:  65; 6HR PCP: TRACE;

ST PAUL        PTSUNNY   61  46  57 W20G30    29.84R
CRYSTAL        MOSUNNY   62  42  47 NW17      29.84S
BLAINE         PTSUNNY   63  45  51 NW16G25   29.85R
LAKEVILLE      SUNNY     59  46  63 NW15G22   29.85S
EDEN PRAIRIE   MOSUNNY   63  44  50 NW17G24   29.84R
6HR MIN TEMP:  57; 6HR MAX TEMP:  67; 6HR PCP:  0.11;

SOUTH ST PAUL  MOSUNNY   61  45  54 NW15G22   29.84R
LAKE ELMO      PTSUNNY   59  46  63 NW17G23   29.85R
$$
MNZ001>005-007-008-013>017-022>024-027-028-300100-
   Northwest Minnesota

CITY           SKY/WX    TMP DP  RH WIND       PRES   REMARKS
BEMIDJI        CLOUDY    50  44  79 W15G22    29.82R
HALLOCK        CLOUDY    48  45  87 NW16G22   29.87S
ROSEAU         CLOUDY    48  39  71 NW17      29.82S
WARROAD        CLOUDY    48  39  71 NW13      29.82R
THIEF RVR FALL CLOUDY    48  43  81 NW21G28   29.86S
CROOKSTON      CLOUDY    52  45  76 N21G26    29.88S
FOSSTON        CLOUDY    50  43  76 NW16G23   29.86S
DETROIT LAKES  DRIZZLE   50  48  93 NW13      29.88S
MOORHEAD       CLOUDY    55  46  71 NW16      29.89F
PARK RAPIDS    LGT RAIN  54  44  69 NW15      29.83S
MAHNOMEN       CLOUDY    51  46  83 NW15      29.86S
$$
MNZ006-009>011-018-025>026-300100-
   North Central Minnesota

CITY           SKY/WX    TMP DP  RH WIND       PRES   REMARKS
BAUDETTE       CLOUDY    50  39  66 NW12      29.78S
FLAG ISLAND    CLOUDY    48  37  66 NW16      29.78S
INTL FALLS     CLOUDY    52  39  61 NW13      29.75S
6HR MIN TEMP:  52; 6HR MAX TEMP:  56;

WASKISH        CLOUDY    54  43  66 W16G24    29.79S
BIG FORK       PTSUNNY   54  41  62 W6        29.77S
LONGVILLE      CLOUDY    54  45  71 NW8       29.81F
GRAND RAPIDS   PTSUNNY   55  43  63 W10       29.80S
CRANE LAKE     CLOUDY    52  45  76 W5        29.75R
ORR            CLOUDY    54  41  62 NW7       29.72S
COOK           CLOUDY    54  43  66 W13G18    29.75S
WALKER         CLOUDY    53  43  68 NW13G23   29.81S
$$
MNZ012-019>021-037-300100-
   Northeast Minnesota

CITY           SKY/WX    TMP DP  RH WIND       PRES   REMARKS
DULUTH         PTSUNNY   55  45  68 NW17G23   29.75S
6HR MIN TEMP:  54; 6HR MAX TEMP:  58; 6HR PCP: TRACE;

ELY            CLOUDY    52  45  76 W12G18    29.72S
HIBBING        CLOUDY    53  44  71 W13       29.76S
EVELETH        CLOUDY    53  42  66 NW9       29.76S
DULUTH HARBOR  CLOUDY    59  48  67 W16       29.77R
TWO HARBORS    CLOUDY    57  48  72 W7        29.72R
SILVER BAY     MOSUNNY   57  48  72 NW9G17    29.70R
GRAND MARAIS     N/A     58  49  72 W10G16    29.63S
G MARAIS ARPRT CLOUDY    54  46  76 W12G22    29.65S
$$
MNZ029>031-032-039>041-046>048-054>057-064-300100-
   West Central Minnesota

CITY           SKY/WX    TMP DP  RH WIND       PRES   REMARKS
FERGUS FALLS   CLOUDY    55  48  76 NW29G38   29.88S HAZE
WHEATON        PTSUNNY   59  46  63 NW12      29.92F
MORRIS         CLOUDY    61  45  55 NW18G24   29.90S
ALEXANDRIA     CLOUDY    53  49  86 NW13      29.89F
ELBOW LAKE     FAIR      56  46  68 W14       29.89F
WADENA         PTSUNNY   54  45  71 W9        29.86R
GLENWOOD       CLOUDY    55  46  71 NW15      29.90S
APPLETON       CLOUDY    59  48  67 NW13G18   29.92S
BENSON         LGT RAIN  57  48  72 N10       29.93R
ORTONVILLE     PTSUNNY   61  43  51 NW17G24   29.92S
MADISON        CLOUDY    63  46  55 N22       29.93S
WILLMAR        FAIR      61  46  59 NW22      29.91S
$$
MNZ033>034-036-042>043-049>051-058-059-300100-
   Central Minnesota

CITY           SKY/WX    TMP DP  RH WIND       PRES   REMARKS
ST CLOUD       CLOUDY    58  46  64 NW12      29.84F
6HR MIN TEMP:  58; 6HR MAX TEMP:  63;

SAUK CENTRE    CLOUDY    54  47  77 W13       29.88S
PAYNESVILLE    LGT RAIN  57  44  62 NW14G29   29.89R
AITKIN         CLOUDY    55  45  67 W8        29.79F
PINE RIVER     CLOUDY    55  46  71 W8G16     29.85S
BRAINERD       CLOUDY    57  45  64 W12G22    29.83S
STAPLES        PTSUNNY   55  45  67 W12       29.84F
LONG PRAIRIE   CLOUDY    54  48  82 W10       29.88S
LITTLE FALLS   CLOUDY    55  43  62 W8G21     29.86R
LITCHFIELD     CLOUDY    61  46  59 NW16      29.89R
BUFFALO        CLOUDY    60  44  54 W9        29.87S
MAPLE LAKE     CLOUDY    61  47  59 W9G18     29.87S
HUTCHINSON     CLOUDY    64  46  51 W18G28    29.89S
$$
MNZ037-044-045-052-053-300100-
   East Central Minnesota

CITY           SKY/WX    TMP DP  RH WIND       PRES   REMARKS
PRINCETON      CLOUDY    61  46  59 W8        29.84F
MORA           PTSUNNY   55  43  62 NW9       29.84S
CAMBRIDGE      PTSUNNY   61  46  59 W8        29.82S
RUSH CITY      PTSUNNY   57  46  67 NW5       29.83S
MOOSE LAKE     CLOUDY    55  43  62 NW10G16   29.78R
HINCKLEY       FAIR      57  45  62 W8G17     29.81S
CLOQUET        CLOUDY    55  43  62 W13       29.77S
MCGREGOR       CLOUDY    57  45  62 W12G18    29.79F
$$
MNZ071>073-080-081-089-090-097-098-300100-
   Southwest Minnesota

CITY           SKY/WX    TMP DP  RH WIND       PRES   REMARKS
MONTEVIDEO     PTSUNNY   61  48  63 N7        29.93R
CANBY          MOSUNNY   61  45  55 W15G28    29.95S
MARSHALL       CLOUDY    58  48  69 NW13      29.95R
REDWOOD FALLS  CLOUDY    61  45  55 NW12G23   29.91S
OLIVIA         RAIN      54  46  76 NW14G26   29.92R
PIPESTONE      CLOUDY    55  45  67 NW8       29.98F
WINDOM         MOSUNNY   57  52  82 NW9G16    29.94S
WORTHINGTON    CLOUDY    62  45  53 NW17G23   29.96F
JACKSON        CLOUDY    61  46  59 NW16G24   29.95S
TRACY          CLOUDY    59  49  68 NW18G24   29.96R
SLAYTON        CLOUDY    60  45  58 NW25G35   29.97S
$$
MNZ065>067-074>077-082>085-091>093-300100-
   South Central Minnesota

CITY           SKY/WX    TMP DP  RH WIND       PRES   REMARKS
MANKATO        PTSUNNY   62  47  57 W15       29.89S
NEW ULM        MOSUNNY   63  45  51 NW16G29   29.90S
ST JAMES       CLOUDY    61  52  72 W10       29.93F
FAIRMONT       LGT RAIN  55  50  83 NW14      29.94R
GLENCOE        PTSUNNY   64  49  56 W17       29.87S
FARIBAULT      PTSUNNY   63  46  55 NW13G18   29.87S
OWATONNA       MOSUNNY   63  45  51 NW18      29.87S
WASECA         PTSUNNY   59  46  63 W15       29.90R
ALBERT LEA     PTSUNNY   61  52  72 W9G16     29.90S
$$
MNZ078>079-086>088-094>096-300100-
   Southeast Minnesota

CITY           SKY/WX    TMP DP  RH WIND       PRES   REMARKS
ROCHESTER      MOSUNNY   58  49  72 W21G30    29.87S
6HR MIN TEMP:  55; 6HR MAX TEMP:  65; 6HR PCP:  0.01;

RED WING       CLOUDY    61  48  63 W9        29.82S
STANTON        MOSUNNY   62  46  55 NW20G29   29.84R
DODGE CENTER   PTSUNNY   59  48  67 W16       29.86S
WINONA         CLOUDY    59  48  67 NW9       29.84R
AUSTIN         PTSUNNY   61  46  59 W17G24    29.89S
PRESTON        MOSUNNY   58  46  64 W21       29.88S
$$
ABBREVIATIONS USED IN REMARKS
   TC - TEMPERATURES IN CELSIUS
  WCI - WIND CHILL INDEX
   HX - HEAT INDEX
  VSB - VISIBILITY
$$




USA.gov is the U.S. government's official web portal to all federal, state and local government web resources and services.